STARLINK-2591, 48361

Orbit data source: Space-Track

STARLINK-2591, 48361 is a payload satellite owned by SpaceX/Seattle (US) in LEO that was launched on Tue, 04 May 2021 UTC via an FALCON 9 launch vehicle from the Air Force Eastern Test Range (AFETR). Payload-class satellites include a variety of spacecraft equipped with specific instruments for various scientific and technological missions. These include communications satellites like Starlink; space stations such as the ISS; scientific satellites like the Hubble; Earth observation satellites from companies like Planet Labs, Umbra, and HawkEye 360; GPS; miniature CubeSats for education and research; and military/defense satellites.

Loading next visibility...
Identifier
48361, 2021-038J
Orbit
LEO
Country
Flag of USUS
Related business
Manufacturer
SpaceX/Seattle
Mission
Operational Commercial Communications
Bus & Motor
STARLINK, Unknown motor
Mass
260 kg wet, ~248 kg dry
Launch date (UTC)
2021-05-04 (5 years ago)
Launch vehicle
FALCON 9
Launch site
Air Force Eastern Test Range (AFETR)
Object type
Payload
Rocket body
Debris
Shape & HBR
Box + 1 Pan, 10.1 m
Radar Cross Section
13.562 m², Large (>1 m²)

Expand to show TLE details & history
Last TLE update: 2 days ago

TLE from 2 days ago
0 STARLINK-2591
1 48361U 21038J   26171.35527616  .00000456  00000-0  26444-4 0  9997
2 48361  53.1570 240.5260 0001077  96.1674 263.9450 15.31707528282800
Epoch: 2026-06-20T08:31Z
TLE epoch observation values (Epoch: 2026-06-20T08:31:35.860Z)
Latitude
-0.00002°
Longitude
-155.94452°
Altitude
471.695 km
Speed
7.631 km/s
True Right ascension
16h 02m 06s
True Declination
0° 00' 00"
Sunlit
Object was in full shadow at epoch
Visualization orbit readout
Latitude
Unknown
Longitude
Unknown
Altitude
Unknown
Speed
Unknown
Apparent Right ascension
Unknown
Apparent Declination
Unknown
Sunlit
N/A
Visualization observer readout
Local Sidereal Time
21:30:46
Azimuth
Unknown
Elevation
Unknown
Doppler factor
Unknown
Orbital elements
Apogee altitude
471.712 km
Perigee altitude
470.237 km
Semi-major axis
6,849.112 km
Eccentricity
0.00011
Inclination
53.157°
RAAN
240.526°
Arg. of periapsis
96.1674°
True anomaly
263.93273°
Mean anomaly
263.945°
Eccentric anomaly
263.93886°
Mean motion
3.82906 °/min
Orbital period
94.02 mins
BSTAR
0.000026444
Loading maneuver chart data...
Computing Atmospheric mass density...

Documentation

Showing up to 5 results
|